TimeEDT,TemperatureF,Dew PointF,Humidity,Sea Level PressureIn,VisibilityMPH,Wind Direction,Wind SpeedMPH,Gust SpeedMPH,PrecipitationIn,Events,Conditions,WindDirDegrees,DateUTC
12:53 AM,59.0,55.0,87,30.10,9.0,Calm,Calm,-,N/A,,Overcast,0,2012-10-27 04:53:00
1:53 AM,57.9,55.0,90,30.08,8.0,Calm,Calm,-,N/A,,Overcast,0,2012-10-27 05:53:00
2:53 AM,57.9,55.0,90,30.06,7.0,Calm,Calm,-,N/A,,Overcast,0,2012-10-27 06:53:00
3:53 AM,57.9,55.0,90,30.04,8.0,Calm,Calm,-,N/A,,Overcast,0,2012-10-27 07:53:00
4:53 AM,59.0,54.0,83,30.03,8.0,Calm,Calm,-,N/A,,Overcast,0,2012-10-27 08:53:00
5:53 AM,57.9,55.0,90,30.02,6.0,Calm,Calm,-,N/A,,Overcast,0,2012-10-27 09:53:00
6:53 AM,57.0,55.0,93,30.03,6.0,Calm,Calm,-,N/A,,Overcast,0,2012-10-27 10:53:00
7:53 AM,57.0,55.0,93,30.04,4.0,Calm,Calm,-,N/A,,Overcast,0,2012-10-27 11:53:00
8:53 AM,59.0,55.0,87,30.04,6.0,Calm,Calm,-,N/A,,Overcast,0,2012-10-27 12:53:00
9:53 AM,61.0,55.0,81,30.03,7.0,Calm,Calm,-,N/A,,Overcast,0,2012-10-27 13:53:00
10:05 AM,62.6,55.4,77,30.04,8.0,Calm,Calm,-,N/A,,Overcast,0,2012-10-27 14:05:00
10:53 AM,63.0,55.0,75,30.02,9.0,Calm,Calm,-,N/A,,Overcast,0,2012-10-27 14:53:00
11:53 AM,64.0,54.0,70,30.01,10.0,East,4.6,-,N/A,,Overcast,90,2012-10-27 15:53:00
12:53 PM,63.0,53.1,70,29.99,10.0,ESE,4.6,-,N/A,,Overcast,120,2012-10-27 16:53:00
1:53 PM,64.0,53.1,67,29.98,10.0,East,3.5,-,N/A,,Overcast,100,2012-10-27 17:53:00
2:53 PM,64.9,52.0,63,29.96,10.0,Calm,Calm,-,N/A,,Overcast,0,2012-10-27 18:53:00
3:12 PM,64.4,53.6,68,29.97,10.0,Calm,Calm,-,N/A,,Overcast,0,2012-10-27 19:12:00
3:21 PM,64.4,53.6,68,29.96,10.0,Calm,Calm,-,N/A,,Overcast,0,2012-10-27 19:21:00
3:53 PM,64.9,52.0,63,29.96,10.0,Calm,Calm,-,N/A,,Overcast,0,2012-10-27 19:53:00
4:53 PM,64.0,52.0,65,29.95,10.0,ENE,3.5,-,N/A,,Overcast,60,2012-10-27 20:53:00
5:53 PM,61.0,54.0,78,29.96,10.0,Calm,Calm,-,N/A,,Scattered Clouds,0,2012-10-27 21:53:00
6:53 PM,57.0,52.0,83,29.96,10.0,Calm,Calm,-,N/A,,Clear,0,2012-10-27 22:53:00
7:53 PM,55.9,52.0,87,29.96,9.0,Calm,Calm,-,N/A,,Clear,0,2012-10-27 23:53:00
8:53 PM,55.9,53.1,90,29.95,8.0,Calm,Calm,-,N/A,,Clear,0,2012-10-28 00:53:00
9:53 PM,55.0,52.0,89,29.95,7.0,Calm,Calm,-,N/A,,Mostly Cloudy,0,2012-10-28 01:53:00
10:53 PM,54.0,52.0,93,29.95,6.0,Calm,Calm,-,N/A,,Clear,0,2012-10-28 02:53:00
11:53 PM,53.1,51.1,93,29.94,5.0,NNE,3.5,-,N/A,,Mostly Cloudy,20,2012-10-28 03:53:00